Window Rock, AZ

9:23 AM MDT on April 27, 2017 (GMT -0600)
Window Rock

Weather History for KRQE - December, 2011

Change the Weather History Date:

Thursday, December 22, 2011

  Actual Average Record
Temperature  
Mean Temperature 22 °F -  
Max Temperature 28 °F 40 °F 61 °F (1969)
Min Temperature 17 °F 14 °F -22 °F (1968)
Degree Days  
Heating Degree Days 42    
Moisture  
Dew Point 15 °F    
Average Humidity 75    
Maximum Humidity 88    
Minimum Humidity 53    
Precipitation  
Precipitation 0.00 in - - ()
Sea Level Pressure  
Sea Level Pressure 30.05 in    
Wind  
Wind Speed 5 mph (NNE)    
Max Wind Speed 14 mph    
Max Gust Speed 20 mph    
Visibility 7 miles    
Events Snow    
Averages and records for this station are not official NWS values.
T = Trace of Precipitation, MM = Missing Value Source: NWS Daily Summary

Daily Weather History Graph

Daily Weather History Graph

Search for Another Location

Airport or City:

Trip Planner

Search our weather history database for the weather conditions in past years. The results will help you decide how hot, cold, wet, or windy it might be!

Date:

Astronomy

Dec. 22, 2011 Rise Set
Actual Time 7:22 AM MST 5:07 PM MST
Civil Twilight 6:54 AM MST 5:35 PM MST
Nautical Twilight 6:22 AM MST 6:07 PM MST
Astronomical Twilight 5:50 AM MST 6:38 PM MST
Moon 5:10 AM MST (12/22) 3:20 PM MST (12/22)
Length of Visible Light 10h 41m
Length of Day
9h 44m
Waning Crescent, 5% of the Moon is Illuminated
Dec 22
Waning Crescent
Dec 24
New
Dec 31
First Quarter
Jan 9
Full
Jan 16
Last Quarter

Hourly Weather History & Observations

Time (MST) Temp. Windchill Dew Point Humidity Pressure Visibility Wind Dir Wind Speed Gust Speed Precip Events Conditions
12:53 AM 28.0 °F - 25.0 °F 88% 29.86 in 10.0 mi Calm Calm - N/A   Overcast
1:10 AM 28.4 °F 24.6 °F 24.8 °F 86% 29.92 in 10.0 mi SW 3.5 mph - N/A   Overcast
1:53 AM 28.0 °F 22.8 °F 24.1 °F 85% 29.89 in 10.0 mi West 4.6 mph - N/A   Mostly Cloudy
2:53 AM 25.0 °F 14.8 °F 19.9 °F 81% 29.91 in 10.0 mi North 10.4 mph - N/A   Mostly Cloudy
3:02 AM 24.8 °F 16.1 °F 19.4 °F 80% 29.96 in 10.0 mi North 8.1 mph - N/A   Scattered Clouds
3:53 AM 23.0 °F 14.7 °F 19.0 °F 85% 29.94 in 10.0 mi North 6.9 mph - N/A   Clear
4:15 AM 24.8 °F 20.5 °F 19.4 °F 80% 29.98 in 10.0 mi NE 3.5 mph - N/A   Mostly Cloudy
4:28 AM 23.0 °F 17.0 °F 19.4 °F 86% 29.97 in 10.0 mi NE 4.6 mph - N/A   Overcast
4:53 AM 24.1 °F 16.0 °F 19.0 °F 81% 29.96 in 10.0 mi North 6.9 mph - N/A   Mostly Cloudy
5:26 AM 23.0 °F 15.8 °F 17.6 °F 80% 29.99 in 10.0 mi North 5.8 mph - N/A   Overcast
5:37 AM 23.0 °F - 17.6 °F 80% 29.99 in 10.0 mi Calm Calm - N/A   Mostly Cloudy
5:53 AM 23.0 °F 17.0 °F 18.0 °F 81% 30.00 in 10.0 mi North 4.6 mph - N/A   Overcast
6:01 AM 23.0 °F 15.8 °F 17.6 °F 80% 30.00 in 10.0 mi NNE 5.8 mph - N/A   Overcast
6:53 AM 21.9 °F 14.5 °F 17.1 °F 82% 30.02 in 5.0 mi NNW 5.8 mph - 0.00 in Snow Light Snow
7:05 AM 21.2 °F 13.6 °F 15.8 °F 80% 30.03 in 5.0 mi North 5.8 mph - 0.00 in Snow Light Snow
7:12 AM 21.2 °F 11.7 °F 15.8 °F 80% 30.03 in 8.0 mi North 8.1 mph - 0.00 in Snow Light Snow
7:53 AM 21.0 °F 12.4 °F 14.0 °F 74% 30.05 in 10.0 mi NNW 6.9 mph - 0.00 in   Overcast
8:53 AM 21.9 °F 11.7 °F 14.0 °F 72% 30.07 in 10.0 mi North 9.2 mph - N/A   Overcast
9:53 AM 23.0 °F 18.4 °F 10.9 °F 60% 30.11 in 10.0 mi North 3.5 mph - 0.00 in   Overcast
10:53 AM 26.1 °F 17.6 °F 12.0 °F 55% 30.09 in 10.0 mi North 8.1 mph - N/A   Overcast
11:42 AM 24.8 °F - 12.2 °F 59% 30.07 in 2.5 mi Calm Calm - 0.00 in Snow Light Snow
11:49 AM 26.6 °F - 12.2 °F 55% 30.07 in 8.0 mi Calm Calm - 0.00 in   Overcast
11:53 AM 26.1 °F - 12.0 °F 55% 30.06 in 10.0 mi Calm Calm - 0.00 in   Overcast
1:53 PM 25.0 °F 19.3 °F 10.0 °F 53% 30.02 in 9.0 mi Variable 4.6 mph - N/A   Overcast
2:29 PM 24.8 °F 20.5 °F 12.2 °F 59% 30.03 in 2.5 mi North 3.5 mph - 0.00 in Snow Light Snow
2:37 PM 24.8 °F 16.9 °F 12.2 °F 59% 30.03 in 9.0 mi North 6.9 mph - 0.00 in   Overcast
2:53 PM 24.1 °F 18.2 °F 10.9 °F 57% 30.05 in 9.0 mi NNE 4.6 mph - 0.00 in   Overcast
3:53 PM 24.1 °F - 12.0 °F 60% 30.07 in 10.0 mi Calm Calm - N/A   Overcast
4:53 PM 24.1 °F 19.7 °F 10.0 °F 55% 30.07 in 10.0 mi North 3.5 mph - N/A   Overcast
5:53 PM 23.0 °F 12.4 °F 9.0 °F 55% 30.09 in 10.0 mi North 10.4 mph - N/A   Overcast
6:53 PM 21.0 °F 9.9 °F 12.9 °F 71% 30.13 in 6.0 mi North 10.4 mph - 0.00 in   Haze
7:44 PM 19.4 °F 8.6 °F 15.8 °F 86% 30.09 in 2.0 mi ENE 9.2 mph - 0.00 in Snow Light Snow
7:53 PM 19.9 °F 11.1 °F 15.1 °F 81% 30.15 in 2.5 mi ENE 6.9 mph - 0.00 in Snow Light Snow
8:53 PM 19.9 °F 10.1 °F 15.1 °F 81% 30.16 in 4.0 mi ENE 8.1 mph - 0.00 in Snow Light Snow
9:01 PM 19.4 °F 9.5 °F 14.0 °F 80% 30.11 in 1.8 mi ENE 8.1 mph - 0.00 in Snow Light Snow
9:17 PM 19.4 °F 7.9 °F 15.8 °F 86% 30.11 in 1.5 mi NE 10.4 mph 17.3 mph 0.00 in Snow Light Snow
9:32 PM 19.4 °F 7.9 °F 15.8 °F 86% 30.12 in 3.0 mi NE 10.4 mph 17.3 mph 0.00 in Snow Light Snow
9:42 PM 19.4 °F 7.2 °F 15.8 °F 86% 30.12 in 1.8 mi NE 11.5 mph 18.4 mph 0.00 in Snow Light Snow
9:53 PM 19.0 °F 10.0 °F 15.1 °F 85% 30.17 in 2.5 mi NE 6.9 mph - 0.00 in Snow Light Snow
9:58 PM 19.4 °F 7.2 °F 15.8 °F 86% 30.12 in 3.0 mi ENE 11.5 mph - 0.00 in Snow Light Snow
10:53 PM 19.0 °F 6.8 °F 12.9 °F 77% 30.16 in 7.0 mi NE 11.5 mph - 0.00 in   Overcast
11:01 PM 17.6 °F 3.7 °F 14.0 °F 86% 30.12 in 7.0 mi ENE 13.8 mph 19.6 mph 0.00 in   Overcast
11:53 PM 18.0 °F 6.1 °F 14.0 °F 84% 30.19 in 7.0 mi ENE 10.4 mph - 0.00 in   Overcast